{"data":{"norad_id":65489,"intl_designator":"2025-197B","name":"2025-197B","alt_names":[],"object_type":"PAYLOAD","status":"ACTIVE","operator":null,"country":"PRC","launch_date":"2025-09-05","launch_site_code":"JSC","launch_vehicle":null,"mission":null,"orbit_class":"UNKNOWN","rcs_meters":null,"size_class":null,"mass_kg":null,"dimensions":null,"purposes":[],"wikipedia_slug":null,"has_3d_model":false,"image_url":null,"decayed_at":null,"tle_current":{"epoch":"2026-05-25T02:12:27.074592Z","epoch_age_seconds":60940,"freshness":"FRESH","line1":"1 65489U 25197B   26145.09198003  .00005448  00000+0  25826-3 0  9990","line2":"2 65489  97.4046 331.8317 0014728  93.9166 266.3753 15.19610688 39779","mean_motion":15.19610688,"eccentricity":0.0014728,"inclination_deg":97.4046,"raan_deg":331.8317,"arg_perigee_deg":93.9166,"mean_anomaly_deg":266.3753,"bstar":0.00025826,"rev_number":3977,"period_min":94.761112919995,"perigee_km":496.87585610582,"apogee_km":517.15676369546,"semimajor_km":6885.1533099006,"source":"CELESTRAK","updated_at":"2026-05-25T13:38:05.451715Z"}}}